Date,TemperatureHighF,TemperatureAvgF,TemperatureLowF,DewpointHighF,DewpointAvgF,DewpointLowF,HumidityHigh,HumidityAvg,HumidityLow,PressureMaxIn,PressureMinIn,WindSpeedMaxMPH,WindSpeedAvgMPH,GustSpeedMaxMPH,PrecipitationSumIn
2013-3-1,24,23,21,21,20,17,94,90,84,29.82,29.68,17,10,21,0.00
2013-3-2,25,19,10,17,14,8,95,81,69,29.81,29.75,10,6,11,0.00
2013-3-3,32,19,8,18,10,3,97,72,44,29.75,29.68,8,2,10,0.00
2013-3-4,34,23,8,25,18,4,91,80,65,29.72,29.63,13,5,16,0.00
2013-3-5,31,28,25,29,27,24,99,93,81,29.64,29.48,15,8,19,0.00
2013-3-6,34,29,25,29,26,24,100,91,80,29.89,29.64,12,8,15,0.00
2013-3-7,41,30,20,25,22,18,100,76,53,30.02,29.88,5,2,8,0.00
2013-3-8,44,30,15,32,25,15,99,86,59,30.05,29.88,11,4,15,0.00
2013-3-9,42,35,29,36,32,25,100,87,74,29.88,29.42,13,7,20,0.07
2013-3-10,45,40,36,44,40,36,100,99,95,29.43,29.23,13,4,17,0.63
2013-3-11,40,34,30,39,33,25,99,95,80,29.34,29.14,10,3,14,0.04
2013-3-12,35,29,24,30,26,22,100,90,65,29.58,29.34,18,6,18,0.02
2013-3-13,33,24,18,22,14,10,94,68,43,29.89,29.58,15,8,20,0.00
2013-3-14,38,27,15,29,21,11,100,77,52,29.89,29.67,11,3,15,0.00
2013-3-15,40,32,27,36,31,27,100,96,87,29.66,29.40,11,4,16,0.06
2013-3-16,32,28,24,30,24,20,100,88,68,29.72,29.39,14,7,20,0.00
2013-3-17,32,26,18,25,18,11,88,73,60,29.83,29.61,13,8,17,0.00
2013-3-18,35,28,18,35,26,13,100,93,78,29.61,29.19,19,8,29,0.19
2013-3-19,31,20,12,15,12,8,86,70,50,29.62,29.31,20,12,28,0.06
2013-3-20,22,15,9,10,6,2,73,65,55,29.65,29.60,16,7,21,0.00
2013-3-21,31,19,8,16,10,2,80,68,52,29.63,29.59,12,5,15,0.00
2013-3-22,38,25,12,20,14,8,84,66,38,29.68,29.61,6,3,9,0.00
2013-3-23,44,29,0,28,20,14,91,71,43,29.73,29.66,6,2,9,0.00
2013-3-24,35,32,21,30,27,19,96,84,77,30.34,29.75,17,12,23,1.12
2013-3-25,33,30,26,28,26,23,97,85,75,30.07,29.77,18,10,21,0.00
2013-3-26,40,34,30,30,27,25,87,76,66,30.23,30.06,10,6,12,0.00
2013-3-27,42,35,27,28,24,20,79,65,48,30.30,30.22,10,4,11,0.00
2013-3-28,49,36,27,27,23,19,79,60,39,30.32,30.27,7,3,9,0.00
2013-3-29,52,39,27,29,23,19,77,56,33,30.30,30.23,6,2,8,0.00
2013-3-30,56,44,29,44,33,22,95,67,51,30.24,29.83,16,7,21,0.00
2013-3-31,53,41,21,44,36,19,100,85,60,30.45,29.71,14,7,21,1.12